Location: Unspecified
(0.0000°N, 0.0000°E)
Time: 20:10:26
(UTC+00:00)

Vanguard 3 - All Passes

Search period start: 16 September 2019 00:00
Search period end: 26 September 2019 00:00
Orbit: 508 x 3263 km, 33.4° (Epoch: 14 September)

Date Brightness Start Highest point End Pass type
(mag) Time Alt. Az. Time Alt. Az. Time Alt. Az.
16 Sep - 02:48:01 10° SSE 02:51:47 14° SE 02:56:28 10° ESE visible
16 Sep - 04:55:20 10° SW 05:04:29 65° SE 05:20:34 10° ENE visible
16 Sep - 07:07:42 10° WSW 07:20:00 52° NNW 07:38:29 10° NE daylight
16 Sep - 09:26:14 10° WNW 09:39:33 25° NNW 09:54:23 10° NNE daylight
16 Sep - 11:51:44 10° NW 12:02:25 16° N 12:11:56 10° NNE daylight
16 Sep - 14:12:10 10° NNW 14:23:40 22° NNE 14:31:58 10° ENE daylight
16 Sep - 16:28:11 10° NW 16:40:20 51° NNE 16:47:09 10° ESE daylight
16 Sep - 18:45:21 10° WNW 18:52:47 34° SW 18:57:29 10° SSE visible
17 Sep - 03:42:44 10° SSW 03:49:49 35° SE 04:01:26 10° ENE visible
17 Sep - 05:53:04 10° WSW 06:03:24 74° NW 06:21:10 10° NE daylight
17 Sep - 08:08:15 10° W 08:21:02 33° NNW 08:37:43 10° NNE daylight
17 Sep - 10:30:54 10° NW 10:42:44 18° N 10:54:29 10° NNE daylight
17 Sep - 12:54:13 10° NNW 13:05:40 19° N 13:14:53 10° NE daylight
17 Sep - 15:11:20 10° NW 15:24:33 35° NNE 15:32:44 10° E daylight
17 Sep - 17:27:50 10° WNW 17:38:58 77° SW 17:45:03 10° SE daylight
18 Sep - 02:31:41 10° S 02:35:37 15° SE 02:40:43 10° ESE visible
18 Sep - 04:39:28 10° SW 04:47:54 74° SE 05:03:14 10° ENE visible
18 Sep - 06:52:07 10° W 07:03:26 45° NNW 07:20:45 10° NE daylight
18 Sep - 09:11:01 10° WNW 09:23:16 22° NNW 09:37:13 10° NNE daylight
18 Sep - 11:35:10 10° NNW 11:46:32 17° N 11:56:44 10° NE daylight
18 Sep - 13:54:11 10° NNW 14:07:42 27° NNE 14:17:09 10° ENE daylight
18 Sep - 16:10:36 10° NW 16:24:15 63° NNE 16:31:43 10° ESE daylight
18 Sep - 18:28:58 10° W 18:36:37 29° SW 18:41:33 10° SSE visible
19 Sep - 03:26:47 10° SSW 03:33:24 40° SE 03:44:38 10° ENE visible
19 Sep - 05:37:23 10° WSW 05:46:54 63° NNW 06:03:29 10° NE daylight
19 Sep - 07:52:58 10° WNW 08:04:39 29° NNW 08:20:04 10° NNE daylight
19 Sep - 10:15:22 10° NW 10:26:44 18° N 10:38:14 10° NNE daylight
19 Sep - 12:36:37 10° NNW 12:49:41 22° NNE 13:00:07 10° ENE daylight
19 Sep - 14:53:27 10° NW 15:08:27 43° NNE 15:17:30 10° E daylight
19 Sep - 17:10:45 10° WNW 17:22:45 64° SW 17:29:19 10° SE daylight
20 Sep - 02:15:27 10° S 02:19:28 17° SE 02:24:51 10° E visible
20 Sep - 04:23:42 10° SW 04:31:27 85° SE 04:45:51 10° NE visible
20 Sep - 06:36:43 10° W 06:47:04 38° NNW 07:02:55 10° NE daylight
20 Sep - 08:55:56 10° NW 09:07:09 20° N 09:20:03 10° NNE daylight
20 Sep - 11:18:27 10° NNW 11:30:35 19° N 11:41:35 10° NE daylight
20 Sep - 13:36:17 10° NW 13:51:33 32° NNE 14:02:06 10° E daylight
20 Sep - 15:53:03 10° NW 16:08:00 76° NE 16:16:10 10° ESE daylight
20 Sep - 18:12:36 10° W 18:20:25 25° SW 18:25:34 10° SSE visible
21 Sep - 03:10:54 10° SSW 03:17:03 46° SE 03:27:48 10° ENE visible
21 Sep - 05:21:51 10° WSW 05:30:34 53° NNW 05:45:44 10° NE visible
21 Sep - 07:37:55 10° WNW 07:48:27 24° NNW 08:02:20 10° NNE daylight
21 Sep - 09:59:44 10° NW 10:10:47 17° N 10:22:10 10° NE daylight
21 Sep - 12:19:03 10° NNW 12:33:34 25° NNE 12:45:10 10° ENE daylight
21 Sep - 14:35:38 10° NW 14:52:10 52° NNE 15:02:04 10° ESE daylight
21 Sep - 16:53:40 10° WNW 17:06:24 54° SW 17:13:32 10° SE daylight
22 Sep - 01:59:16 10° S 02:03:19 19° SE 02:08:54 10° E visible
22 Sep - 04:08:02 10° WSW 04:15:10 81° NW 04:28:27 10° NE visible
22 Sep - 06:21:30 10° W 06:30:52 31° NNW 06:45:02 10° NE daylight
22 Sep - 08:40:59 10° NW 08:51:08 18° N 09:02:55 10° NNE daylight
22 Sep - 11:01:38 10° NNW 11:14:32 20° NNE 11:26:27 10° NE daylight
22 Sep - 13:18:28 10° NW 13:35:14 38° NNE 13:46:49 10° E daylight
22 Sep - 15:35:30 10° NW 15:51:36 89° NE 16:00:28 10° SE daylight
22 Sep - 17:56:17 10° W 18:04:09 23° SW 18:09:31 10° S daylight
23 Sep - 02:55:06 10° SW 03:00:49 55° SE 03:10:57 10° ENE visible
23 Sep - 05:06:28 10° W 05:14:25 43° NNW 05:27:57 10° NE visible
23 Sep - 07:23:05 10° WNW 07:32:24 21° NNW 07:44:34 10° NNE daylight
23 Sep - 09:43:57 10° NNW 09:54:51 17° N 10:06:14 10° NE daylight
23 Sep - 12:01:31 10° NNW 12:17:17 28° NNE 12:30:00 10° ENE daylight
23 Sep - 14:17:52 10° NW 14:35:42 61° NNE 14:46:28 10° ESE daylight
23 Sep - 16:36:37 10° WNW 16:49:57 47° SW 16:57:38 10° SSE daylight
24 Sep - 01:43:11 10° S 01:47:12 22° SE 01:52:53 10° E visible
24 Sep - 03:52:29 10° WSW 03:59:02 66° NNW 04:11:02 10° NE visible
24 Sep - 06:06:32 10° WNW 06:14:50 26° NNW 06:27:03 10° NNE daylight
24 Sep - 08:26:05 10° NW 08:35:15 17° N 08:45:53 10° NNE daylight
24 Sep - 10:44:44 10° NNW 10:58:23 22° NNE 11:11:12 10° ENE daylight
24 Sep - 13:00:44 10° NW 13:18:44 44° NNE 13:31:20 10° E daylight
24 Sep - 15:18:00 10° WNW 15:35:01 80° SW 15:44:39 10° SE daylight
24 Sep - 17:40:02 10° W 17:47:53 20° SW 17:53:25 10° S daylight
25 Sep - 02:39:22 10° SW 02:44:40 68° SE 02:54:05 10° ENE visible
25 Sep - 04:51:16 10° W 04:58:26 34° NNW 05:10:08 10° NE visible
25 Sep - 07:08:30 10° NW 07:16:31 18° N 07:26:43 10° NNE daylight
25 Sep - 09:28:00 10° NNW 09:38:52 18° N 09:50:27 10° NE daylight
25 Sep - 11:44:03 10° NNW 12:00:48 32° NNE 12:14:37 10° E daylight
25 Sep - 14:00:11 10° NW 14:19:03 70° NE 14:30:43 10° ESE daylight
25 Sep - 16:19:37 10° WNW 16:33:25 42° SW 16:41:39 10° SSE daylight
